Location: Chevoux
(46.3801°N, 4.9476°E)
Time: 08:17:20
(UTC+00:00)

X-37B - Pass Details

Date: 19 April 2021
Orbit: 386 x 389 km, 45.0° (Epoch: 08 May)

Event Time Altitude Azimuth Distance (km) Brightness Sun altitude
Exits shadow 03:53:02 14° 251° (WSW) 1,213 2.4 -9.3°
Maximum altitude 03:55:40 61° 172° (S) 442 0.7 -8.9°
Drops below altitude 10° 03:58:49 10° 90° (E) 1,413 4.6 -8.4°
Sets 04:00:54 0° 87° (E) 2,268 5.9 -8.1°
